DW9636 Weather Reports


Display with metric or nautical units.
time (UTC)temp
F
wind
direction
speed
MPH
gust
MPH
rain 1hr
in
rain 24hr
in
rain mn
in
humidity
%
barometer
mb
20260509150050 38 355 0.0 0.0 0.00 0.00 0.00 91 1019.0
20260509144550 35 355 0.0 0.0 0.00 0.00 0.00 94 1019.1
20260509143050 33 355 0.0 0.0 0.00 0.00 0.00 94 1019.1
20260509141548 30 355 0.0 0.0 0.00 0.00 0.00 93 1019.1
20260509140048 29 355 0.0 0.0 0.00 0.00 0.00 92 1019.1
20260509134547 29 355 0.0 0.0 0.00 0.00 0.00 91 1018.8
20260509133045 29 355 0.0 0.0 0.00 0.00 0.00 91 1018.9
20260509131549 29 355 0.0 0.0 0.00 0.00 0.00 90 1018.8
20260509130057 29 355 0.0 0.0 0.00 0.00 0.00 90 1018.8
20260509124544 29 355 0.0 0.0 0.00 0.00 0.00 90 1018.6
20260509123044 29 355 0.0 0.0 0.00 0.00 0.00 89 1018.6
20260509121539 30 355 0.0 0.0 0.00 0.00 0.00 89 1018.7
20260509120035 31 355 0.0 0.0 0.00 0.00 0.00 88 1018.9
20260509114533 31 355 0.0 0.0 0.00 0.00 0.00 88 1019.0
20260509113031 32 355 0.0 0.0 0.00 0.00 0.00 89 1019.0
20260509111531 32 355 0.0 0.0 0.00 0.00 0.00 87 1018.9
20260509110025 33 355 0.0 0.0 0.00 0.00 0.00 87 1019.1
20260509104523 34 355 0.0 0.0 0.00 0.00 0.00 87 1019.0
20260509103021 34 355 0.0 0.0 0.00 0.00 0.00 86 1019.0
20260509101520 35 355 0.0 0.0 0.00 0.00 0.00 85 1018.9
20260509100021 36 355 0.0 0.0 0.00 0.00 0.00 85 1018.9
20260509094512 38 355 0.0 0.0 0.00 0.00 0.00 84 1018.9
20260509093011 38 355 0.0 0.0 0.00 0.00 0.00 84 1018.9
20260509091507 39 355 0.0 0.0 0.00 0.00 0.00 83 1018.9
20260509090006 40 355 0.0 0.0 0.00 0.00 0.00 82 1019.1
20260509084502 40 355 0.0 0.0 0.00 0.00 0.00 82 1019.0
20260509083101 40 355 0.0 0.0 0.00 0.00 0.00 81 1019.1
20260509081603 41 355 0.0 0.0 0.00 0.00 0.00 81 1019.2
20260509080101 41 355 0.0 0.0 0.00 0.00 0.00 80 1019.0
20260509074555 41 355 0.0 0.0 0.00 0.00 0.00 79 1019.0
20260509073053 41 355 0.0 0.0 0.00 0.00 0.00 78 1018.8
20260509071555 42 355 0.0 0.0 0.00 0.00 0.00 75 1018.9
20260509070050 43 355 0.0 0.0 0.00 0.00 0.00 74 1018.9
20260509064551 44 355 0.0 0.0 0.00 0.00 0.00 72 1018.9
20260509063045 44 355 0.0 0.0 0.00 0.00 0.00 72 1018.9
20260509061558 44 355 0.0 0.0 0.00 0.00 0.00 72 1018.8
20260509060100 44 355 0.0 0.0 0.00 0.00 0.00 71 1018.4
20260509054548 45 355 0.0 0.0 0.00 0.00 0.00 67 1018.5
20260509053044 46 355 0.0 0.0 0.00 0.00 0.00 64 1018.2
20260509051543 48 355 0.0 0.0 0.00 0.00 0.00 63 1018.5
20260509050058 49 355 0.0 0.0 0.00 0.00 0.00 60 1018.2
20260509044553 50 355 0.0 0.0 0.00 0.00 0.00 57 1018.3
20260509043037 52 355 0.0 0.0 0.00 0.00 0.00 54 1018.1
20260509041538 53 355 0.0 0.0 0.00 0.00 0.00 52 1017.9
20260509040035 54 355 0.0 0.0 0.00 0.00 0.00 51 1017.7
20260509034535 55 355 0.0 0.0 0.00 0.00 0.00 48 1017.6
20260509033033 56 360 0.0 0.0 0.00 0.00 0.00 47 1017.5
20260509031532 58 360 0.0 0.0 0.00 0.00 0.00 46 1017.3
20260509030036 59 5 0.0 0.0 0.00 0.00 0.00 45 1017.1
20260509024528 60 26 0.0 0.0 0.00 0.00 0.00 42 1016.9
20260509023031 61 327 0.0 0.0 0.00 0.00 0.00 40 1016.6
20260509021525 62 288 0.0 0.0 0.00 0.00 0.00 39 1016.4
20260509020026 63 305 0.0 0.0 0.00 0.00 0.00 38 1016.1
20260509014523 64 333 0.0 0.0 0.00 0.00 0.00 36 1016.0
20260509013022 65 271 0.0 0.0 0.00 0.00 0.00 35 1016.0
20260509011522 65 261 0.0 0.0 0.00 0.00 0.00 33 1016.1
20260509010021 66 264 0.0 0.0 0.00 0.00 0.00 33 1016.1
20260509004533 66 292 0.0 0.0 0.00 0.00 0.00 32 1016.1
20260509003020 67 293 1.0 0.0 0.00 0.00 0.00 30 1016.1
20260509001519 67 309 0.0 0.0 0.00 0.00 0.00 31 1016.1
20260509000031 67 215 0.0 0.0 0.00 0.00 0.00 29 1016.1
20260508234516 68 232 1.0 0.0 0.00 0.00 0.00 28 1016.1
20260508233017 68 355 1.0 0.0 0.00 0.00 0.00 30 1016.0
20260508231516 69 321 1.0 0.0 0.00 0.00 0.00 29 1016.1
20260508230015 69 13 1.0 0.0 0.00 0.00 0.00 30 1016.0
20260508224516 70 306 1.0 0.0 0.00 0.00 0.00 28 1015.9
20260508223015 70 15 1.0 0.0 0.00 0.00 0.00 28 1015.7
20260508221515 70 13 1.0 0.0 0.00 0.00 0.00 28 1015.8
20260508220013 70 188 1.0 0.0 0.00 0.00 0.00 27 1015.8
20260508214515 70 300 1.0 0.0 0.00 0.00 0.00 26 1015.8
20260508213021 71 269 1.0 0.0 0.00 0.00 0.00 26 1015.9
20260508211512 71 329 1.0 0.0 0.00 0.00 0.00 24 1015.8
20260508210011 71 181 1.0 0.0 0.00 0.00 0.00 24 1015.8
20260508204510 70 232 1.0 0.0 0.00 0.00 0.00 25 1015.5
20260508203007 70 261 2.0 0.0 0.00 0.00 0.00 24 1015.6
20260508201517 69 224 2.0 0.0 0.00 0.00 0.00 23 1015.6
20260508200008 69 167 0.0 0.0 0.00 0.00 0.00 26 1015.5
20260508194626 68 207 0.0 0.0 0.00 0.00 0.00 27 1015.6
20260508193107 67 302 1.0 0.0 0.00 0.00 0.00 28 1015.7
20260508191559 65 136 1.0 0.0 0.00 0.00 0.00 28 1015.8
20260508190053 64 193 1.0 0.0 0.00 0.00 0.00 28 1015.8
20260508184549 62 219 1.0 0.0 0.00 0.00 0.00 29 1016.1
20260508183047 61 326 1.0 0.0 0.00 0.00 0.00 29 1016.1
20260508181606 60 198 0.0 0.0 0.00 0.00 0.00 31 1016.1
20260508180053 61 207 0.0 0.0 0.00 0.00 0.00 32 1016.0
20260508174546 61 252 1.0 0.0 0.00 0.00 0.00 32 1016.0
20260508173045 60 219 1.0 0.0 0.00 0.00 0.00 32 1016.1
20260508171543 60 194 1.0 0.0 0.00 0.00 0.00 32 1016.0
20260508170042 60 192 1.0 0.0 0.00 0.00 0.00 31 1015.8
20260508164538 59 291 0.0 0.0 0.00 0.00 0.00 42 1015.8
20260508163033 57 309 0.0 0.0 0.00 0.00 0.00 45 1015.8
20260508161532 54 309 0.0 0.0 0.00 0.00 0.00 52 1016.2
20260508160029 51 309 0.0 0.0 0.00 0.00 0.00 62 1016.1
20260508154520 46 309 0.0 0.0 0.00 0.00 0.00 72 1016.0
20260508153017 41 309 0.0 0.0 0.00 0.00 0.00 79 1016.1
20260508151517 37 309 0.0 0.0 0.00 0.00 0.00 86 1016.0